Weather History for KLWC - December, 2012

Change the Weather History Date:

Thursday, December 13, 2012

  Actual Average Record
Temperature  
Mean Temperature 43 °F 32 °F  
Max Temperature 57 °F 42 °F 62 °F (2006)
Min Temperature 29 °F 22 °F 7 °F (2010)
Degree Days  
Heating Degree Days 22 33  
Month to date heating degree days 300 405  
Since 1 July heating degree days 1332 1413  
Cooling Degree Days 0 0  
Month to date cooling degree days 0 0  
Year to date cooling degree days 1780 1371  
Moisture  
Dew Point 18 °F    
Average Humidity 44    
Maximum Humidity 63    
Minimum Humidity 24    
Precipitation  
Precipitation 0.00 in 0.05 in 0.38 in (2000)
Month to date precipitation 0.02 0.57  
Year to date precipitation 20.07 37.65  
Sea Level Pressure  
Sea Level Pressure 30.11 in    
Wind  
Wind Speed 10 mph (South)    
Max Wind Speed 23 mph    
Max Gust Speed 30 mph    
Visibility 10 miles    
Events      
T = Trace of Precipitation, MM = Missing Value Source: NWS Daily Summary

Daily Weather History Graph

Daily Weather History Graph

Search for Another Location

Airport or City:

Trip Planner

Search our weather history database for the weather conditions in past years. The results will help you decide how hot, cold, wet, or windy it might be!

Date:

Astronomy

Dec. 13, 2012 Rise Set
Actual Time 7:31 AM CST 4:59 PM CST
Civil Twilight 7:01 AM CST 5:29 PM CST
Nautical Twilight 6:28 AM CST 6:02 PM CST
Astronomical Twilight 5:55 AM CST 6:35 PM CST
Moon 7:41 AM CST (12/13) 5:42 PM CST (12/13)
Length of Visible Light 10h 27m
Length of Day
9h 27m
New Moon, 0% of the Moon is Illuminated
Dec 13
New Moon
Dec 19
First Quarter
Dec 28
Full
Jan 4
Last Quarter
Jan 11
New

Hourly Weather History & Observations

Time (CST) Temp. Windchill Dew Point Humidity Pressure Visibility Wind Dir Wind Speed Gust Speed Precip Events Conditions
12:52 AM 39.9 °F 31.1 °F 12.9 °F 33% 30.13 in 10.0 mi South 17.3 mph - N/A   Clear
1:52 AM 41.0 °F 32.8 °F 12.9 °F 32% 30.12 in 10.0 mi South 16.1 mph 23.0 mph N/A   Clear
2:52 AM 41.0 °F 32.2 °F 12.9 °F 32% 30.12 in 10.0 mi South 18.4 mph 25.3 mph N/A   Clear
3:52 AM 39.9 °F 30.8 °F 14.0 °F 35% 30.10 in 10.0 mi South 18.4 mph 25.3 mph N/A   Clear
4:52 AM 39.9 °F 32.5 °F 15.1 °F 36% 30.09 in 10.0 mi South 12.7 mph 24.2 mph N/A   Clear
5:52 AM 39.0 °F 33.4 °F 15.1 °F 38% 30.11 in 10.0 mi South 8.1 mph - N/A   Clear
6:52 AM 37.0 °F 31.6 °F 16.0 °F 42% 30.13 in 10.0 mi South 6.9 mph - N/A   Clear
7:52 AM 35.1 °F 30.1 °F 16.0 °F 46% 30.14 in 8.0 mi SSE 5.8 mph - N/A   Clear
8:52 AM 42.1 °F 37.1 °F 17.1 °F 37% 30.14 in 10.0 mi South 8.1 mph - N/A   Clear
9:52 AM 46.0 °F 40.6 °F 18.0 °F 33% 30.15 in 10.0 mi SSW 11.5 mph - N/A   Clear
10:52 AM 51.1 °F - 19.0 °F 28% 30.14 in 10.0 mi SW 15.0 mph 25.3 mph N/A   Clear
11:52 AM 53.1 °F - 19.9 °F 27% 30.13 in 10.0 mi SW 16.1 mph - N/A   Clear
12:52 PM 55.0 °F - 19.9 °F 25% 30.10 in 10.0 mi SSW 16.1 mph - N/A   Clear
1:52 PM 55.9 °F - 21.0 °F 26% 30.09 in 10.0 mi SSW 12.7 mph - N/A   Clear
2:52 PM 57.0 °F - 21.0 °F 25% 30.07 in 10.0 mi South 10.4 mph - N/A   Clear
3:52 PM 55.9 °F - 21.0 °F 26% 30.08 in 10.0 mi South 11.5 mph - N/A   Clear
6:52 PM 37.9 °F 33.5 °F 19.9 °F 48% 30.10 in 10.0 mi SE 5.8 mph - N/A   Clear
7:52 PM 37.0 °F 33.3 °F 19.9 °F 50% 30.10 in 10.0 mi SE 4.6 mph - N/A   Clear
8:52 PM 34.0 °F 28.8 °F 19.9 °F 56% 30.11 in 10.0 mi SE 5.8 mph - N/A   Clear
9:52 PM 35.1 °F 30.1 °F 21.0 °F 57% 30.11 in 10.0 mi ESE 5.8 mph - N/A   Clear
10:52 PM 30.9 °F 26.2 °F 19.9 °F 64% 30.11 in 10.0 mi East 4.6 mph - N/A   Clear